Location: ??????
(41.3164°N, 22.6615°E)
Time: 17:19:00
(UTC+00:00)

Cosmos 1300 - Pass Details

Date: 29 May 2022
Orbit: 506 x 508 km, 82.5° (Epoch: 01 July)

Event Time Altitude Azimuth Distance (km) Brightness Sun altitude
Rises 00:06:09 0° 334° (NNW) 2,618 6.8 -23.0°
Reaches altitude 10° 00:08:48 10° 315° (NW) 1,727 5.6 -22.8°
Enters shadow 00:10:01 15° 298° (WNW) 1,445 4.9 -22.7°
